User: anonymous   Login
Location: Cruquius
(52.3348°N, 4.6319°E)
Time: 18:26:18
(UTC+00:00)
Language:

JB-3 - Orbit

View from above orbital plane
View from above orbital plane
View from above satellite
View from above satellite

Ground track
Ground track

The orbit data is extracted from the following two-line orbital elements,

1 28470U 04044A   21211.01528816 -.00000321  00000-0 -18956-4 0  9992
2 28470  97.2811  79.5847 0043294 261.5908  98.0410 15.03167278918789
Epoch (UTC): 30 July 2021 00:22:00
Eccentricity: 0.0043294
inclination: 97.2811°
perigee height: 527 km
apogee height: 587 km
right ascension of ascending node: 79.5847°
argument of perigee: 261.5908°
revolutions per day: 15.03167278
mean anomaly at epoch: 98.0410°
orbit number at epoch: 91878

The dashed part of the orbit path shows where the satellite is in the earth's shadow,  

DLR